Greenville/Spartanburg, SC

11:56 PM EST on December 13, 2017 (GMT -0500)
Greenville-Spartanburg International

Weather History for KGSP - December, 2013

Change the Weather History Date:

Tuesday, December 24, 2013

  Actual Average Record
Temperature  
Mean Temperature 38 °F 42 °F  
Max Temperature 47 °F 52 °F 71 °F (1964)
Min Temperature 29 °F 33 °F 8 °F (1983)
Degree Days  
Heating Degree Days 27 23  
Month to date heating degree days 395 492  
Since 1 July heating degree days 999 1045  
Cooling Degree Days 0 0  
Month to date cooling degree days 6 0  
Year to date cooling degree days 1533 1715  
Moisture  
Dew Point 25 °F    
Average Humidity 60    
Maximum Humidity 82    
Minimum Humidity 38    
Precipitation  
Precipitation 0.00 in 0.14 in 1.74 in (2014)
Month to date precipitation 5.29 3.26  
Year to date precipitation 68.18 46.34  
Snow  
Snow 0.00 in 0.00 in 0.40 in (1945)
Month to date snowfall 0.0 0.2  
Since 1 July snowfall 0.1 0.3  
Snow Depth 0.00 in    
Sea Level Pressure  
Sea Level Pressure 30.28 in    
Wind  
Wind Speed 6 mph (North)    
Max Wind Speed 18 mph    
Max Gust Speed 22 mph    
Visibility 10 miles    
Events      
T = Trace of Precipitation, MM = Missing Value Source: NWS Daily Summary

Daily Weather History Graph

Daily Weather History Graph

Search for Another Location

Airport or City:

Trip Planner

Search our weather history database for the weather conditions in past years. The results will help you decide how hot, cold, wet, or windy it might be!

Date:

Astronomy

Dec. 24, 2013 Rise Set
Actual Time 7:34 AM EST 5:23 PM EST
Civil Twilight 7:06 AM EST 5:51 PM EST
Nautical Twilight 6:34 AM EST 6:22 PM EST
Astronomical Twilight 6:03 AM EST 6:53 PM EST
Moon No Moon Rise 11:42 AM EST (12/24)
Length of Visible Light 10h 45m
Length of Day
9h 48m
Waning Gibbous, 59% of the Moon is Illuminated
Dec 24
Waning Gibbous
Dec 25
Last Quarter
Jan 1
New
Jan 7
First Quarter
Jan 15
Full

Hourly Weather History & Observations

Time (EST) Temp. Windchill Dew Point Humidity Pressure Visibility Wind Dir Wind Speed Gust Speed Precip Events Conditions
12:53 AM 45.0 °F 41.2 °F 34.0 °F 65% 30.15 in 10.0 mi NNE 6.9 mph - N/A   Overcast
1:53 AM 44.1 °F 42.5 °F 33.1 °F 65% 30.16 in 10.0 mi NNE 3.5 mph - N/A   Overcast
2:53 AM 43.0 °F 40.3 °F 32.0 °F 65% 30.16 in 10.0 mi North 4.6 mph - N/A   Overcast
3:53 AM 42.1 °F 40.2 °F 30.9 °F 65% 30.18 in 10.0 mi North 3.5 mph - N/A   Mostly Cloudy
4:53 AM 37.0 °F 33.3 °F 28.9 °F 73% 30.19 in 10.0 mi WNW 4.6 mph - N/A   Partly Cloudy
5:53 AM 35.1 °F 31.0 °F 27.0 °F 72% 30.21 in 10.0 mi WNW 4.6 mph - N/A   Clear
6:53 AM 35.1 °F 32.2 °F 27.0 °F 72% 30.22 in 10.0 mi NW 3.5 mph - N/A   Clear
7:53 AM 34.0 °F - 28.0 °F 79% 30.24 in 10.0 mi Calm Calm - N/A   Clear
8:53 AM 37.9 °F - 28.9 °F 70% 30.26 in 10.0 mi Calm Calm - N/A   Clear
9:53 AM 42.1 °F 39.2 °F 28.9 °F 60% 30.28 in 10.0 mi North 4.6 mph - N/A   Clear
10:53 AM 45.0 °F 42.6 °F 28.9 °F 53% 30.29 in 10.0 mi Variable 4.6 mph - N/A   Clear
11:53 AM 46.9 °F - 28.9 °F 50% 30.28 in 10.0 mi North 4.6 mph - N/A   Clear
12:53 PM 46.9 °F - 26.1 °F 44% 30.26 in 10.0 mi North 10.4 mph 17.3 mph N/A   Clear
1:53 PM 46.0 °F 39.9 °F 23.0 °F 40% 30.28 in 10.0 mi North 13.8 mph 19.6 mph N/A   Clear
2:53 PM 44.1 °F 39.0 °F 21.9 °F 42% 30.28 in 10.0 mi North 9.2 mph 20.7 mph N/A   Clear
3:53 PM 42.1 °F 35.7 °F 19.9 °F 41% 30.30 in 10.0 mi North 11.5 mph 19.6 mph N/A   Clear
4:53 PM 39.0 °F 34.0 °F 19.9 °F 46% 30.32 in 10.0 mi North 6.9 mph - N/A   Clear
5:53 PM 36.0 °F 31.1 °F 18.0 °F 48% 30.35 in 10.0 mi North 5.8 mph - N/A   Clear
6:53 PM 34.0 °F 28.8 °F 17.1 °F 50% 30.36 in 10.0 mi North 5.8 mph - N/A   Clear
7:53 PM 33.1 °F 27.7 °F 14.0 °F 46% 30.38 in 10.0 mi North 5.8 mph - N/A   Clear
8:53 PM 32.0 °F 28.7 °F 16.0 °F 52% 30.39 in 10.0 mi North 3.5 mph - N/A   Clear
9:53 PM 30.0 °F 24.1 °F 17.1 °F 59% 30.40 in 10.0 mi NNE 5.8 mph - N/A   Clear
10:53 PM 30.0 °F 22.4 °F 17.1 °F 59% 30.41 in 10.0 mi NE 8.1 mph - N/A   Clear
11:53 PM 28.9 °F 21.9 °F 17.1 °F 61% 30.41 in 10.0 mi NNE 6.9 mph - N/A   Clear